User: anonymous   Login
Location: Unspecified
(0.0000°N, 0.0000°E)
Time: 08:26:31
(UTC+00:00)
Language:

UNISAT 6 - Orbit

View from above orbital plane
View from above orbital plane
View from above satellite
View from above satellite

Ground track
Ground track

The orbit data is extracted from the following two-line orbital elements,

1 40012U 14033C   24104.89464565  .00004999  00000-0  66431-3 0  9990
2 40012  97.6976 269.9935 0054191 154.0345 206.3604 14.79154336528333
Epoch (UTC): 13 April 2024 21:28:17
Eccentricity: 0.0054191
inclination: 97.6976°
perigee height: 594 km
apogee height: 670 km
right ascension of ascending node: 269.9935°
argument of perigee: 154.0345°
revolutions per day: 14.79154336
mean anomaly at epoch: 206.3604°
orbit number at epoch: 52833

The dashed part of the orbit path shows where the satellite is in the earth's shadow,  

DLR